Regional Weather Roundup
Issued by NWS

Home | Current Version | Previous Version | Graphics & Text | Print | Product List | Glossary On
Versions: 1 2 3 4 5 6 7 8 9 10 11 12 13 14 15 16 17 18 19 20 21 22 23 24 25 26 27 28 29 30 31 32 33 34 35 36 37 38 39 40 41 42 43 44 45 46 47 48 49 50
000
ASUS45 KBOU 242207
RWRCO

WEATHER ROUNDUP FOR COLORADO
NATIONAL WEATHER SERVICE DENVER/BOULDER CO
400 PM MDT MON APR 24 2017

NOTE: "FAIR" INDICATES FEW OR NO CLOUDS BELOW 12000 FEET WITH NO
SIGNIFICANT WEATHER AND/OR OBSTRUCTIONS TO VISIBILITY.

COZ001>005-013-030-031-242300-
...NORTHWEST COLORADO...

CITY           SKY/WX    TMP DP  RH WIND       PRES   REMARKS
CRAIG          LGT RAIN  54  32  43 NW16      29.62F
HAYDEN         CLOUDY    52  28  40 CALM      29.65F
MEEKER         CLOUDY    59  25  27 SW18G35   29.60F
MOUNT WERNER   NOT AVBL
STEAMBOAT SPGS CLOUDY    49  34  56 W10G16    29.67F
WALDEN           N/A     48  30  49 SW14G21   29.71F
$$

COZ006>008-011-242300-
...WEST CENTRAL VALLEYS...

CITY           SKY/WX    TMP DP  RH WIND       PRES   REMARKS
GRAND JUNCTION CLOUDY    69  24  18 SW14G25   29.59F
MONTROSE       CLOUDY    62  25  24 SW15G25   29.71F
EAGLE          CLOUDY    55  28  35 S16       29.67F
RIFLE          PTSUNNY   66  24  20 SW17G30   29.59F
DELTA          CLOUDY    67  22  17 SW15G21   29.65F
NUCLA          CLOUDY    63  21  20 S20G29    29.74F
$$

COZ017>023-064>068-242300-
...SOUTHWEST COLORADO...

CITY           SKY/WX    TMP DP  RH WIND       PRES   REMARKS
DURANGO        CLOUDY    60  18  19 SW22G43   29.80F
CORTEZ         CLOUDY    63  21  20 W8G18     29.77F
PAGOSA SPRINGS CLOUDY    58  18  21 W17G23    29.85F
TELLURIDE      NOT AVBL
WOLF CREEK PAS CLOUDY    32  21  64 SW33G44   29.99F WCI  17
$$

COZ009-010-012-014-032>034-037-058>063-242300-
...CENTRAL COLORADO...

CITY           SKY/WX    TMP DP  RH WIND       PRES   REMARKS
ASPEN          PTSUNNY   49  32  52 S17G26    29.73F
BUENA VISTA    PTSUNNY   54  23  30 N7G18     29.74F
COPPER MTN     CLOUDY    36  23  60 SW12G23   29.88F HAZE
BERTHOUD PASS  CLOUDY    32  21  64 MISG      29.88F
COTTONWOOD PAS FAIR      45  25  45 W31G41    29.79F
GUNNISON       FAIR      54  24  31 SW9       29.77F
KREMMLING      CLOUDY    59  32  36 SW10G16   29.70F
LEADVILLE      PTSUNNY   44  23  43 S15G24    29.80F
MONARCH PASS   CLOUDY    30  25  80 W37G44    30.01F WCI  14
SALIDA         CLOUDY    55  28  35 W22       29.83F
SUNLIGHT       CLOUDY    34  23  64 SW10G28   29.84F WCI  26
WILKERSON PASS PTSUNNY   43  19  39 SW14G25   29.88F
$$

COZ069>075-242300-
...SAN LUIS VALLEY/SANGRE DE CRISTO MOUNTAINS...

CITY           SKY/WX    TMP DP  RH WIND       PRES   REMARKS
ALAMOSA        FAIR      60  20  21 SW24G33   29.75F
LA VETA PASS   CLOUDY    46  16  29 MISG      29.93S
SAGUACHE       PTSUNNY   59  21  23 NW22      29.76S
$$

COZ035-036-038>040-242300-
...NORTHERN COLORADO FRONT RANGE...

CITY           SKY/WX    TMP DP  RH WIND       PRES   REMARKS
DENVER INTL AP PTSUNNY   64  29  26 E21       29.57F
DMNS CITY PARK   N/A     64  29  27 E16G28    29.56F
AURORA         PTSUNNY   63  31  30 E12       29.59F
FRONT RANGE AP CLOUDY    64  32  29 E12G37    29.60F
ERIE MUNI ARPT CLOUDY    65  27  23 E7G16     29.57F
BOULDER MUN AP DRIZZLE   61  32  33 NE6       29.58F
CENTENNIAL     PTSUNNY   63  30  28 E20G30    29.58F
BROOMFIELD     CLOUDY    64  30  27 E9        29.60F
FORT COLLINS   FAIR      63  34  33 SE21G29   29.58F
LONGMONT       CLOUDY    66  32  28 NE14G24   29.59F
$$

COZ041-046-047-076>085-087-088-242300-
...PIKES PEAK/PALMER DIVIDE AND SOUTHERN FOOTHILLS...

CITY           SKY/WX    TMP DP  RH WIND       PRES   REMARKS
COLO. SPRINGS  CLOUDY    67  23  19 SW16G25   29.60F
A. F. ACADEMY  CLOUDY    61  31  32 CALM      29.60F
SCHRIEVER AFB  PTSUNNY   65  23  20 SW15G22   29.61F
ELLICOTT       FAIR     N/A N/A N/A E12       29.59F
FALCON         CLOUDY    58  30  34 E15G23    29.65F
FORT CARSON    FAIR      69  24  18 S15G21    29.57F
LIMON          CLOUDY    64  34  32 E6        29.62F
MONUMENT HILL  PTSUNNY   54  32  43 SE17G28   29.66S
TRINIDAD       FAIR      74  21  13 W9        29.58F
$$

COZ042>045-048>051-090-091-242300-
...NORTHEAST COLORADO...

CITY           SKY/WX    TMP DP  RH WIND       PRES   REMARKS
GREELEY ARPT   CLOUDY    66  31  27 S16G28    29.58F
AKRON          FAIR      65  31  28 NE7       29.60F
BURLINGTON     NOT AVBL
WRAY           NOT AVBL
STERLING       PTSUNNY   66  34  30 N8        29.56S
HOLYOKE        FAIR      72  36  26 N9        29.58S
FORT MORGAN    PTSUNNY   66  28  23 E9        29.59F
$$

COZ086-089-092>099-242300-
...SOUTHEAST COLORADO...

CITY           SKY/WX    TMP DP  RH WIND       PRES   REMARKS
PUEBLO         FAIR      75  27  17 SE8       29.50F
LA JUNTA       FAIR      80  27  14 SE12      29.50F
LAMAR          FAIR      79  34  19 SE14G22   29.49F
SPRINGFIELD      N/A     78  24  13 SE10      29.53F
$$



USA.gov is the U.S. government's official web portal to all federal, state and local government web resources and services.